hcl.hr alexa rank chart, hcl.hr alexa rank daily changes

hcl.hr alexa rank chart, hcl.hr alexa rank daily changes

hcl.hr
Actual rank:
80 262

RANK HISTORY

Date Rank Diff
2018/01/23 80 262 +975
2018/01/22 79 287 +344
2018/01/21 78 943 +391
2018/01/20 78 552 +327
2018/01/19 78 225 -76
2018/01/18 78 301 +1 033
2018/01/17 77 268 +41
2018/01/16 77 227 -894
2018/01/15 78 121 -597
2018/01/14 78 718 -1 391
2018/01/13 80 109 -1 432
2018/01/12 81 541 -317
2018/01/11 81 858 +966
2018/01/10 80 892 -1 475
2018/01/09 82 367 -150
2018/01/08 82 517 +90
2018/01/07 82 427 -1 060
2018/01/06 83 487 +20
2018/01/05 83 467 -1 169
2018/01/04 84 636 +234
2018/01/03 84 402 -9
2018/01/02 84 411 -851
2018/01/01 85 262 -570
2017/12/31 85 832 -1 913
2017/12/30 87 745 -287
2017/12/29 88 032 -597
2017/12/28 88 629 -223
2017/12/27 88 852 -1 462
2017/12/26 90 314 -1 663
2017/12/25 91 977 -3 096
2017/12/24 95 073 -1 500
2017/12/23 96 573 -2 400
2017/12/22 98 973 -814
2017/12/21 99 787 -130
2017/12/20 99 917 +1 410
2017/12/19 98 507 +321
2017/12/18 98 186 -2 241
2017/12/17 100 427 +422
2017/12/16 100 005 +399
2017/12/15 99 606 -1 070
2017/12/14 100 676 +1 098
2017/12/13 99 578 +817
2017/12/12 98 761 +1 226
2017/12/11 97 535 -2 161
2017/12/10 99 696 -49
2017/12/09 99 745 +1 809
2017/12/08 97 936 -624
2017/12/07 98 560 +34
2017/12/06 98 526 +162
2017/12/05 98 364 +579
2017/12/04 97 785 -1 074
2017/12/03 98 859 -672
2017/12/02 99 531 +72
2017/12/01 99 459 +1 099
2017/11/30 98 360 +557
2017/11/29 97 803 +1 372
2017/11/28 96 431 +276
2017/11/27 96 155 +872
2017/11/26 95 283 -342
2017/11/25 95 625 -438
2017/11/24 96 063

WIDGET FOR YOUR SITE

DOMAINS WITH THE NEAREST RANK

Domain Rank
lagranderecre.fr 80 257
newbeauty.com 80 258
studybay.com 80 259
igrice-igrice.net 80 260
aktual24.ro 80 261
hcl.hr 80 262
speedify.com 80 263
orpha.net 80 264
choilieng.com 80 265
psiphon3.com 80 266
readyforucontents.trade 80 267

DOMAINS WITH THE NEAREST RANK BY TLD .hr

Domain Rank
rba.hr 72 872
mojekrpice.hr 73 184
nn.hr 76 809
glas-slavonije.hr 77 760
oglasnik.hr 80 126
hcl.hr 80 262
irb.hr 85 043
hep.hr 85 512